TimePST,TemperatureF,Dew PointF,Humidity,Sea Level PressureIn,VisibilityMPH,Wind Direction,Wind SpeedMPH,Gust SpeedMPH,PrecipitationIn,Events,Conditions,WindDirDegrees,DateUTC
12:15 AM,32.0,21.2,64,30.37,10.0,Calm,Calm,-,N/A,,Clear,0,2011-11-28 08:15:00
12:35 AM,32.0,21.2,64,30.36,10.0,SE,6.9,-,N/A,,Clear,130,2011-11-28 08:35:00
12:55 AM,32.0,19.4,60,30.36,10.0,Calm,Calm,-,N/A,,Clear,0,2011-11-28 08:55:00
1:15 AM,32.0,19.4,60,30.36,10.0,SE,6.9,-,N/A,,Clear,140,2011-11-28 09:15:00
1:35 AM,32.0,19.4,60,30.36,10.0,NE,4.6,-,N/A,,Clear,40,2011-11-28 09:35:00
1:55 AM,32.0,19.4,60,30.36,10.0,ENE,3.5,-,N/A,,Clear,70,2011-11-28 09:55:00
2:15 AM,32.0,19.4,60,30.35,10.0,SE,4.6,-,N/A,,Clear,130,2011-11-28 10:15:00
2:35 AM,30.2,21.2,69,30.36,10.0,Calm,Calm,-,N/A,,Clear,0,2011-11-28 10:35:00
2:55 AM,32.0,19.4,60,30.35,10.0,Calm,Calm,-,N/A,,Clear,0,2011-11-28 10:55:00
3:15 AM,28.4,19.4,69,30.35,10.0,NE,3.5,-,N/A,,Clear,50,2011-11-28 11:15:00
3:35 AM,32.0,19.4,60,30.33,10.0,Calm,Calm,-,N/A,,Clear,0,2011-11-28 11:35:00
3:55 AM,32.0,21.2,64,30.33,10.0,Calm,Calm,-,N/A,,Clear,0,2011-11-28 11:55:00
4:35 AM,32.0,21.2,64,30.33,10.0,Calm,Calm,-,N/A,,Clear,0,2011-11-28 12:35:00
4:55 AM,32.0,21.2,64,30.33,10.0,Calm,Calm,-,N/A,,Clear,0,2011-11-28 12:55:00
5:35 AM,32.0,21.2,64,30.33,10.0,SSE,3.5,-,N/A,,Clear,150,2011-11-28 13:35:00
5:55 AM,32.0,21.2,64,30.33,10.0,Calm,Calm,-,N/A,,Clear,0,2011-11-28 13:55:00
6:15 AM,32.0,21.2,64,30.33,10.0,Calm,Calm,-,N/A,,Clear,0,2011-11-28 14:15:00
6:35 AM,33.8,21.2,60,30.34,8.0,East,4.6,-,N/A,,Clear,100,2011-11-28 14:35:00
6:55 AM,32.0,21.2,64,30.34,9.0,Calm,Calm,-,N/A,,Clear,0,2011-11-28 14:55:00
7:15 AM,32.0,23.0,69,30.34,9.0,SE,5.8,-,N/A,,Clear,130,2011-11-28 15:15:00
7:35 AM,35.6,23.0,60,30.34,9.0,Calm,Calm,-,N/A,,Clear,0,2011-11-28 15:35:00
7:55 AM,37.4,23.0,56,30.35,9.0,East,8.1,-,N/A,,Clear,90,2011-11-28 15:55:00
8:15 AM,39.2,26.6,61,30.36,9.0,ENE,3.5,-,N/A,,Clear,70,2011-11-28 16:15:00
8:35 AM,42.8,26.6,53,30.36,10.0,NE,3.5,-,N/A,,Clear,40,2011-11-28 16:35:00
9:15 AM,50.0,24.8,37,30.36,9.0,SE,6.9,-,N/A,,Clear,130,2011-11-28 17:15:00
9:55 AM,57.2,24.8,29,30.36,10.0,SE,6.9,-,N/A,,Clear,130,2011-11-28 17:55:00
10:15 AM,59.0,23.0,25,30.35,7.0,SE,10.4,-,N/A,,Clear,130,2011-11-28 18:15:00
10:35 AM,60.8,23.0,23,30.35,8.0,SE,6.9,-,N/A,,Clear,140,2011-11-28 18:35:00
11:15 AM,64.4,17.6,16,30.33,9.0,SSE,3.5,-,N/A,,Clear,160,2011-11-28 19:15:00
11:35 AM,64.4,17.6,16,30.32,10.0,SSE,3.5,-,N/A,,Clear,160,2011-11-28 19:35:00
11:55 AM,64.4,15.8,15,30.31,8.0,SSE,3.5,-,N/A,,Clear,160,2011-11-28 19:55:00
12:15 PM,66.2,17.6,15,30.30,9.0,South,3.5,-,N/A,,Clear,190,2011-11-28 20:15:00
12:35 PM,66.2,15.8,14,30.29,9.0,Calm,Calm,-,N/A,,Clear,0,2011-11-28 20:35:00
12:55 PM,68.0,17.6,15,30.28,8.0,WSW,3.5,-,N/A,,Clear,250,2011-11-28 20:55:00
1:15 PM,68.0,23.0,18,30.28,9.0,NW,10.4,-,N/A,,Clear,320,2011-11-28 21:15:00
1:35 PM,68.0,23.0,18,30.27,9.0,WNW,9.2,-,N/A,,Clear,300,2011-11-28 21:35:00
1:55 PM,68.0,23.0,18,30.27,9.0,NW,12.7,-,N/A,,Clear,310,2011-11-28 21:55:00
2:15 PM,66.2,23.0,19,30.26,9.0,NW,11.5,-,N/A,,Clear,310,2011-11-28 22:15:00
2:35 PM,64.4,21.2,19,30.26,9.0,NW,11.5,-,N/A,,Clear,310,2011-11-28 22:35:00
2:55 PM,62.6,24.8,24,30.26,9.0,NW,11.5,-,N/A,,Clear,310,2011-11-28 22:55:00
3:35 PM,59.0,26.6,29,30.27,9.0,NW,9.2,-,N/A,,Clear,310,2011-11-28 23:35:00
3:55 PM,57.2,24.8,29,30.27,10.0,WNW,5.8,-,N/A,,Clear,290,2011-11-28 23:55:00
4:15 PM,55.4,23.0,29,30.27,9.0,West,6.9,-,N/A,,Clear,270,2011-11-29 00:15:00
4:35 PM,53.6,24.8,33,30.27,10.0,West,5.8,-,N/A,,Clear,260,2011-11-29 00:35:00
4:55 PM,53.6,24.8,33,30.26,9.0,West,6.9,-,N/A,,Clear,260,2011-11-29 00:55:00
5:15 PM,51.8,24.8,35,30.26,10.0,WSW,4.6,-,N/A,,Clear,240,2011-11-29 01:15:00
5:35 PM,53.6,23.0,30,30.26,10.0,WSW,8.1,-,N/A,,Clear,250,2011-11-29 01:35:00
6:15 PM,50.0,23.0,35,30.26,10.0,WSW,4.6,-,N/A,,Clear,250,2011-11-29 02:15:00
6:35 PM,50.0,23.0,35,30.26,10.0,West,3.5,-,N/A,,Clear,270,2011-11-29 02:35:00
6:55 PM,50.0,23.0,35,30.27,10.0,WSW,4.6,-,N/A,,Clear,250,2011-11-29 02:55:00
7:15 PM,50.0,23.0,35,30.27,10.0,West,5.8,-,N/A,,Clear,270,2011-11-29 03:15:00
7:35 PM,50.0,23.0,35,30.26,10.0,Calm,Calm,-,N/A,,Clear,0,2011-11-29 03:35:00
7:55 PM,48.2,23.0,37,30.27,10.0,Calm,Calm,-,N/A,,Clear,0,2011-11-29 03:55:00
8:15 PM,44.6,24.8,46,30.27,10.0,Calm,Calm,-,N/A,,Clear,0,2011-11-29 04:15:00
8:35 PM,42.8,24.8,49,30.27,10.0,Calm,Calm,-,N/A,,Clear,0,2011-11-29 04:35:00
9:15 PM,42.8,24.8,49,30.28,10.0,Calm,Calm,-,N/A,,Clear,0,2011-11-29 05:15:00
9:35 PM,41.0,26.6,57,30.27,10.0,Calm,Calm,-,N/A,,Clear,0,2011-11-29 05:35:00
9:55 PM,41.0,26.6,57,30.27,10.0,Calm,Calm,-,N/A,,Clear,0,2011-11-29 05:55:00
10:15 PM,42.8,24.8,49,30.27,10.0,Calm,Calm,-,N/A,,Clear,0,2011-11-29 06:15:00
10:35 PM,46.4,23.0,40,30.27,10.0,SW,3.5,-,N/A,,Clear,220,2011-11-29 06:35:00
10:55 PM,50.0,21.2,32,30.28,10.0,West,5.8,-,N/A,,Clear,260,2011-11-29 06:55:00
11:15 PM,46.4,23.0,40,30.28,10.0,North,4.6,-,N/A,,Clear,10,2011-11-29 07:15:00
11:35 PM,44.6,23.0,43,30.27,10.0,Calm,Calm,-,N/A,,Clear,0,2011-11-29 07:35:00
11:55 PM,42.8,23.0,46,30.27,10.0,ESE,3.5,-,N/A,,Clear,110,2011-11-29 07:55:00